This is the latest recevied weather packets stored in our database for station/object N6SPP. If no packets are shown the sender has not sent any weather packets the latest 10 day(s).
| Time | Temp. | Humidity | Pressure | Rain* | Wind** | Luminosity | Snow |
|---|---|---|---|---|---|---|---|
| 1777542390 | 15.56° C | 56% | 1016.1 hPa | 0 mm | - | 0 W/m² | - |
| 1777542086 | 15.56° C | 57% | 1016.2 hPa | 0 mm | - | 0 W/m² | - |
| 1777541783 | 16.11° C | 54% | 1016 hPa | 0 mm | - | 0 W/m² | - |
| 1777541481 | 16.11° C | 53% | 1016.3 hPa | 0 mm | - | 0 W/m² | - |
| 1777541177 | 16.11° C | 53% | 1016.3 hPa | 0 mm | - | 0 W/m² | - |
| 1777540873 | 16.67° C | 51% | 1016.4 hPa | 0 mm | - | 0 W/m² | - |
| 1777540571 | 16.11° C | 52% | 1016.6 hPa | 0 mm | - | 0 W/m² | - |
| 1777540267 | 16.11° C | 51% | 1016.5 hPa | 0 mm | - | 0 W/m² | - |
| 1777539963 | 16.67° C | 51% | 1016.7 hPa | 0 mm | - | 0 W/m² | - |
| 1777539660 | 16.67° C | 49% | 1016.7 hPa | 0 mm | - | 0 W/m² | - |
| 1777539356 | 16.11° C | 52% | 1016.8 hPa | 0 mm | - | 0 W/m² | - |
| 1777539053 | 16.11° C | 51% | 1016.6 hPa | 0 mm | - | 0 W/m² | - |
| 1777538748 | 16.67° C | 50% | 1017 hPa | 0 mm | - | 0 W/m² | - |
| 1777538443 | 17.22° C | 47% | 1016.8 hPa | 0 mm | - | 0 W/m² | - |
| 1777538139 | 17.22° C | 47% | 1016.9 hPa | 0 mm | - | 0 W/m² | - |
| 1777537835 | 17.78° C | 44% | 1017.2 hPa | 0 mm | - | 0 W/m² | - |
| 1777537532 | 17.78° C | 45% | 1017 hPa | 0 mm | - | 0 W/m² | - |
| 1777537227 | 17.78° C | 44% | 1016.9 hPa | 0 mm | - | 0 W/m² | - |
| 1777536924 | 17.78° C | 43% | 1017.1 hPa | 0 mm | - | 0 W/m² | - |
| 1777536621 | 17.78° C | 43% | 1017 hPa | 0 mm | - | 0 W/m² | - |
| 1777536317 | 17.78° C | 44% | 1017.1 hPa | 0 mm | - | 0 W/m² | - |
| 1777536009 | 17.78° C | 43% | 1017.3 hPa | 0 mm | - | 0 W/m² | - |
| 1777535704 | 17.78° C | 43% | 1017.2 hPa | 0 mm | - | 0 W/m² | - |
| 1777535401 | 18.33° C | 42% | 1017.1 hPa | 0 mm | - | 0 W/m² | - |
| 1777535098 | 18.33° C | 41% | 1017.2 hPa | 0 mm | - | 0 W/m² | - |
* Rain latest hour (hover to see other rain measurements)
** Current wind speed in m/s (hover to see current wind gust speed)